sat.trackr.live / text

‹ back to catalog

STARLINK-31759

NORAD 59740 · 2024-090L

PAYLOAD ACTIVE UNKNOWN

§ Identity

Operator
Country
US
Launch date
2024-05-13
Launch site
AFETR
Launch vehicle
Mass (kg)
RCS (m²)

Purposes: comms

External: N2YO · Heavens-Above · Gunter

§ Orbital elements

Epoch: 2026-05-25T04:09:53.671968Z

Period
94.27 min
Inclination
43.0024°
Eccentricity
0.0001101
Mean motion
15.27581574 rev/d
Perigee alt
482.3 km
Apogee alt
483.8 km
Semi-major
6,861.2 km
B*
5.9591e-5
RAAN
111.8699°
Arg perigee
250.6005°
Mean anomaly
109.4728°
Rev number
11,513

§ Raw data

STARLINK-317591 59740U 24090L   26145.17353787  .00001378  00000+0  59591-4 0  99902 59740  43.0024 111.8699 0001101 250.6005 109.4728 15.27581574115133

JSON: /api/v1/satellites/59740 · /tle

For live sub-satellite position, see the globe view (requires WebGL).

§ Visibility from observer

Set your observer location to see the next 7 days of passes ≥ 10°. The values pass through the URL so the page stays shareable.

No JS? Fill the form by hand. The geolocation button needs JavaScript.